Miscellaneous Local Product
Issued by NWS North Platte, NE

Home | Current Version | Previous Version | Text Only | Print | Product List | Glossary On
Versions: 1 2 3 4 5 6 7 8 9 10 11 12 13 14 15 16 17 18 19 20 21 22 23 24 25 26 27 28 29 30 31 32 33 34 35 36 37 38 39 40 41 42 43 44 45 46 47 48 49 50
000
AXUS43 KLBF 180910
MISLBF


WESTERN AND NORTH CENTRAL NEBRASKA HOURLY WEATHER ROUNDUP
NATIONAL WEATHER SERVICE NORTH PLATTE NE
300 AM CST THU DEC 18 2014

***STATIONS NOT REPORTING VARIABLES SUCH AS SKY/WEATHER OR
PRESSURE ARE PROVIDED BY THE NEBRASKA DEPARTMENT OF
ROADS...RAWS...AND APRS NETWORKS...AND ARE NOT UNDER
NATIONAL WEATHER SERVICE QUALITY CONTROL***

...OBSERVATIONS IN AND NEAR THE EASTERN PANHANDLE OF NEBRASKA...

CITY           SKY/WX    TMP DP  RH WIND       PRES   REMARKS
PINE RIDGE     CLOUDY    16  13  88 S7        30.01S WCI   6
CHADRON        FOG       16  14  92 SW5       30.02S VSB 1/4 WCI   9
ALLIANCE       FOG       17  14  88 W7        30.00R VSB 1/4 WCI   8
SIDNEY         PTCLDY    11   8  88 SW6       29.98F WCI   1
WHITECLAY        N/A     13   9  85 S3          N/A
CRESCENT LAKE    N/A     21  19  93 CALM        N/A
LISCO            N/A     11   6  81 SW5         N/A  WCI   3
BIG SPRINGS      N/A     25  24  93 SW6         N/A  WCI  18
$$

...OBSERVATIONS IN NORTH CENTRAL NEBRASKA...

CITY           SKY/WX    TMP DP  RH WIND       PRES   REMARKS
VALENTINE      CLOUDY    24  21  88 SW9       30.07S WCI  14
THEDFORD       CLOUDY    24  23  95 SW10      30.08R WCI  13
AINSWORTH      CLOUDY    22  21  96 CALM      30.09R
O`NEILL        CLOUDY    21  20  94 SE3       30.15S
ORD            CLOUDY    23  19  85 SE6       30.14S WCI  16
BROKEN BOW     CLOUDY    24  23  96 S7        30.11R FOG     WCI  16
BROWNLEE         N/A     22  20  93 CALM        N/A
SPRINGVIEW       N/A     22  20  91 SE3         N/A
BREWSTER         N/A     26  26  99 CALM        N/A
ROSE             N/A     27  27 100 MISG        N/A
SARGENT          N/A     23  22  94 CALM        N/A
COMSTOCK         N/A     29  26  90 S5          N/A  WCI  24
CHAMBERS         N/A     21  18  88 CALM        N/A
$$

...OBSERVATIONS IN SOUTHWEST NEBRASKA AND FAR NORTHEAST COLORADO...

CITY           SKY/WX    TMP DP  RH WIND       PRES   REMARKS
WRAY           CLOUDY   N/A N/A N/A SE5       30.04R
IMPERIAL       CLOUDY    25  22  88 SW6       30.05F WCI  18
OGALLALA       CLOUDY    25  23  94 SW7       30.06R WCI  17
NORTH PLATTE   CLOUDY    24  22  91 S7        30.09R FOG     WCI  16
MCCOOK         LGT SNOW  24  22  91 SE3       30.10F FOG
LEXINGTON      CLOUDY    25  23  93 SE3       30.12S
PAXTON           N/A     24  23  94 SW5         N/A  WCI  18
BRADY            N/A     23  21  93 CALM        N/A
GOTHENBURG       N/A     27  25  91 CALM        N/A
CALLAWAY         N/A     23  22  96 SE3         N/A
$$

...NORTH PLATTE AREA...

CITY           SKY/WX    TMP DP  RH WIND       PRES   REMARKS
AIRPORT        CLOUDY    24  22  91 S7        30.09R FOG     WCI  16
DOWNTOWN         N/A     23  22  94 CALM        N/A
$$

...SOME WEATHER OBSERVATIONS FROM AROUND THE REGION...

CITY           SKY/WX    TMP DP  RH WIND       PRES   REMARKS
DENVER         MOCLDY    29  25  85 CALM      29.97S
LARAMIE        CLEAR     10   7  87 CALM      29.96S
CHEYENNE       CLEAR     24  16  71 W9        29.96R WCI  14
SCOTTSBLUFF    FOG       14  12  92 N3        30.02R VSB 1/4
RAPID CITY     CLOUDY    23  21  92 S9        29.99S WCI  13
PIERRE         CLOUDY    19  18  95 SE10      30.12S FOG     WCI   7
WINNER         CLOUDY    23  20  88 SE10      30.12R WCI  12
SIOUX FALLS    CLOUDY    16  12  84 E5        30.23F WCI   9
OMAHA          CLOUDY    28  21  75 E7        30.25F WCI  21
GRAND ISLAND   LGT SNOW  23  21  92 E5        30.18S FOG     WCI  17
KANSAS CITY    LGT SNOW  28  26  92 E7        30.22S VSB 1   WCI  21
WICHITA        LGT SNOW  32  29  88 E5        30.14R FOG     WCI  27
HAYS           CLOUDY    27  18  69 NE6       30.12R WCI  20
LIBERAL        CLOUDY    36  32  87 SE5       30.05R VSB 1/2 WCI  32
GOODLAND       CLOUDY    22  20  92 CALM      30.04S
$$



USA.gov is the U.S. government's official web portal to all federal, state and local government web resources and services.